Zurück zum Katalog

STARLINK-34840

AktivKommunikationVLEO
NORAD 66406·PAYLOAD·🇺🇸 United States

Gestartet Nov 8, 2025 von Cape Canaveral Space Force Station

Loading…

Nächste Überflüge (nächste 24 Stunden)

TLE

AktuellSource: CelesTrak SupGP

Epoche: Sep 14, 2026, 21:02 UTC

1 66406C 25257AC  26257.87687500  .00059663  00000+0  17629-2 0  2578
2 66406  53.1598  53.9336 0001118  73.8376 150.1305 15.34358469    13

Verfolge STARLINK-34840 in Echtzeit mit AllMySat

Download on the App Store